Weather History for Andrews, NC

Change the Weather History Date:

Saturday, August 2, 2014

  Actual Average (KTYS) Record (KTYS)
Temperature  
Mean Temperature 70 °F 78 °F  
Max Temperature 78 °F 88 °F 97 °F (1942)
Min Temperature 61 °F 69 °F 55 °F (1895)
Degree Days  
Heating Degree Days 0 0  
Month to date heating degree days 0  
Since 1 June heating degree days 4  
Since 1 July heating degree days 0  
Cooling Degree Days 4 13  
Month to date cooling degree days 26  
Year to date cooling degree days 910  
Since 1 June cooling degree days 748  
Growing Degree Days 20 (Base 50)    
Moisture  
Dew Point 65 °F    
Average Humidity 90    
Maximum Humidity 100    
Minimum Humidity 64    
Precipitation  
Precipitation 0.15 in 0.13 in 1.37 in (1911)
Month to date precipitation 0.25  
Year to date precipitation 30.58  
Snow  
Snow 0.00 in 0.00 in - ()
Month to date snowfall 0.0  
Since 1 June snowfall 0.0  
Since 1 July snowfall 0.0  
Snow Depth -    
Sea Level Pressure  
Sea Level Pressure 30.12 in    
Wind  
Wind Speed 1 mph (WNW)    
Max Wind Speed 14 mph    
Max Gust Speed -    
Visibility 8 miles    
Events Rain    
T = Trace of Precipitation, MM = Missing Value Source: NWS Daily Summary

Daily Weather History Graph

Daily Weather History Graph

Search for Another Location

Airport:

Trip Planner

Search our weather history database for the weather conditions in past years. The results will help you decide how hot, cold, wet, or windy it might be!

Date:

Astronomy

Aug. 02, 2014 Rise Set
Actual Time 6:45 AM EDT 8:37 PM EDT
Civil Twilight 6:17 AM EDT 9:05 PM EDT
Nautical Twilight 5:43 AM EDT 9:39 PM EDT
Astronomical Twilight 5:07 AM EDT 10:14 PM EDT
Moon 12:50 PM EDT (8/2) No Moon Set
Length of Visible Light 14h 48m
Length of Day
13h 52m
Waxing Crescent, 36% of the Moon is Illuminated
Aug 2
Waxing Crescent
Aug 3
First Quarter
Aug 10
Full
Aug 17
Last Quarter
Aug 25
New

Hourly Weather History & Observations

Time (EDT) Temp. Dew Point Humidity Pressure Visibility Wind Dir Wind Speed Gust Speed Precip Events Conditions
12:35 AM 64.6 °F 63.7 °F 97% 30.13 in 10.0 mi Calm Calm - N/A   Scattered Clouds
12:55 AM 64.4 °F 63.7 °F 98% 30.12 in 10.0 mi Calm Calm - N/A   Scattered Clouds
1:35 AM 64.6 °F 63.9 °F 98% 30.12 in 10.0 mi Calm Calm - N/A Rain Light Rain
2:15 AM 64.6 °F 64.4 °F 99% 30.11 in 7.0 mi Calm Calm - 0.01 in   Light Drizzle
2:35 AM 64.4 °F 64.2 °F 99% 30.11 in 7.0 mi Calm Calm - 0.01 in   Overcast
2:55 AM 64.4 °F 63.9 °F 98% 30.11 in 10.0 mi Calm Calm - 0.01 in   Overcast
3:15 AM 64.4 °F 64.0 °F 99% 30.11 in 7.0 mi Calm Calm - N/A   Overcast
4:35 AM 63.5 °F 63.5 °F 100% 30.11 in 3.0 mi Calm Calm - N/A   Mostly Cloudy
5:15 AM 63.7 °F 63.7 °F 100% 30.11 in 5.0 mi Calm Calm - N/A   Overcast
5:35 AM 62.8 °F 62.6 °F 99% 30.11 in 3.0 mi Calm Calm - N/A   Mostly Cloudy
5:55 AM 63.5 °F 63.3 °F 99% 30.12 in 7.0 mi Calm Calm - N/A   Overcast
6:15 AM 64.0 °F 63.9 °F 99% 30.12 in 7.0 mi Calm Calm - N/A   Overcast
6:35 AM 64.4 °F 64.0 °F 99% 30.12 in 5.0 mi ESE 3.5 mph - N/A   Overcast
6:55 AM 64.0 °F 63.9 °F 99% 30.11 in 5.0 mi Calm Calm - N/A   Overcast
7:15 AM 64.4 °F 64.0 °F 99% 30.11 in 7.0 mi Calm Calm - N/A   Overcast
7:35 AM 64.0 °F 63.7 °F 99% 30.13 in 10.0 mi Calm Calm - N/A   Overcast
7:55 AM 64.6 °F 64.2 °F 99% 30.14 in 7.0 mi West 3.5 mph - N/A   Overcast
8:15 AM 64.8 °F 64.2 °F 98% 30.14 in 7.0 mi Calm Calm - N/A   Overcast
8:35 AM 65.5 °F 64.6 °F 97% 30.14 in 10.0 mi Calm Calm - N/A   Overcast
8:55 AM 66.2 °F 64.4 °F 94% 30.15 in 10.0 mi Calm Calm - N/A   Mostly Cloudy
9:15 AM 67.1 °F 64.9 °F 93% 30.15 in 10.0 mi Calm Calm - N/A   Overcast
9:35 AM 68.4 °F 64.0 °F 86% 30.15 in 10.0 mi Calm Calm - N/A   Mostly Cloudy
9:55 AM 70.7 °F 65.3 °F 83% 30.14 in 10.0 mi Calm Calm - N/A   Scattered Clouds
10:15 AM 73.2 °F 66.2 °F 79% 30.14 in 10.0 mi Calm Calm - N/A   Scattered Clouds
10:35 AM 75.2 °F 66.4 °F 74% 30.15 in 10.0 mi Calm Calm - N/A   Scattered Clouds
10:55 AM 74.3 °F 66.4 °F 76% 30.14 in 10.0 mi Calm Calm - N/A   Scattered Clouds
11:15 AM 74.5 °F 65.8 °F 74% 30.14 in 10.0 mi Calm Calm - N/A   Mostly Cloudy
11:35 AM 78.1 °F 66.0 °F 66% 30.14 in 10.0 mi East 4.6 mph - N/A   Scattered Clouds
11:55 AM 78.1 °F 65.1 °F 64% 30.13 in 10.0 mi Calm Calm - N/A   Scattered Clouds
12:15 PM 77.4 °F 65.3 °F 66% 30.13 in 10.0 mi NW 5.8 mph - N/A   Mostly Cloudy
12:35 PM 77.0 °F 65.5 °F 67% 30.13 in 10.0 mi NW 9.2 mph - N/A   Mostly Cloudy
1:15 PM 69.8 °F 65.8 °F 87% 30.13 in 5.0 mi NNW 13.8 mph - 0.03 in Rain Heavy Rain
1:35 PM 72.9 °F 69.4 °F 89% 30.13 in 7.0 mi NW 5.8 mph - 0.05 in Rain Light Rain
1:55 PM 73.4 °F 68.0 °F 83% 30.11 in 10.0 mi WSW 3.5 mph - 0.05 in   Overcast
2:15 PM 76.1 °F 69.1 °F 79% 30.12 in 10.0 mi SSE 4.6 mph - N/A   Scattered Clouds
2:35 PM 76.1 °F 67.3 °F 74% 30.11 in 10.0 mi Calm Calm - N/A   Scattered Clouds
3:15 PM 78.1 °F 69.4 °F 75% 30.10 in 10.0 mi West 3.5 mph - N/A   Scattered Clouds
3:35 PM 78.1 °F 68.4 °F 72% 30.09 in 10.0 mi West 3.5 mph - N/A   Scattered Clouds
3:55 PM 78.1 °F 67.3 °F 69% 30.09 in 10.0 mi SSW 4.6 mph - N/A   Overcast
4:15 PM 77.4 °F 68.7 °F 75% 30.09 in 10.0 mi West 4.6 mph - N/A   Overcast
4:35 PM 76.1 °F 69.8 °F 81% 30.08 in 10.0 mi NW 4.6 mph - N/A   Overcast
4:55 PM 75.0 °F 68.0 °F 79% 30.08 in 10.0 mi Calm Calm - N/A   Mostly Cloudy
5:15 PM 76.5 °F 67.3 °F 73% 30.10 in 10.0 mi SSW 3.5 mph - N/A   Overcast
5:35 PM 73.9 °F 66.2 °F 77% 30.10 in 10.0 mi Calm Calm - N/A Rain Light Rain
5:55 PM 70.7 °F 67.5 °F 89% 30.11 in 7.0 mi NW 4.6 mph - 0.01 in Rain Light Rain
6:15 PM 70.0 °F 68.2 °F 94% 30.12 in 10.0 mi Calm Calm - N/A Rain Light Rain
6:35 PM 69.8 °F 67.1 °F 91% 30.12 in 2.0 mi ENE 3.5 mph - 0.08 in Rain Light Rain
6:55 PM 69.3 °F 67.1 °F 93% 30.11 in 10.0 mi NNE 3.5 mph - 0.08 in   Mostly Cloudy
7:15 PM 68.9 °F 66.6 °F 92% 30.11 in 10.0 mi Calm Calm - N/A   Clear
7:30 PM 68.2 °F 67.3 °F 97% 30.11 in 10.0 mi Calm Calm - N/A   Scattered Clouds
7:55 PM 68.4 °F 67.3 °F 96% 30.11 in 10.0 mi Calm Calm - N/A   Mostly Cloudy
8:15 PM 68.2 °F 67.1 °F 96% 30.11 in 10.0 mi Calm Calm - N/A   Scattered Clouds
8:35 PM 68.0 °F 66.9 °F 96% 30.13 in 10.0 mi Calm Calm - N/A   Clear
8:55 PM 66.9 °F 66.4 °F 98% 30.13 in 7.0 mi Calm Calm - N/A   Clear
9:15 PM 65.8 °F 65.5 °F 99% 30.12 in 7.0 mi Calm Calm - N/A   Scattered Clouds
9:35 PM 65.3 °F 65.3 °F 100% 30.12 in 7.0 mi Calm Calm - N/A   Scattered Clouds
9:55 PM 64.8 °F 64.4 °F 99% 30.14 in 7.0 mi Calm Calm - N/A   Clear
10:15 PM 64.4 °F 63.9 °F 98% 30.14 in 7.0 mi Calm Calm - N/A   Scattered Clouds
10:35 PM 63.5 °F 63.5 °F 100% 30.14 in 7.0 mi Calm Calm - N/A   Clear
10:55 PM 63.0 °F 62.6 °F 99% 30.15 in 10.0 mi Calm Calm - N/A   Clear
11:15 PM 62.6 °F 62.2 °F 99% 30.15 in 7.0 mi Calm Calm - N/A   Clear
11:35 PM 61.7 °F 61.7 °F 100% 30.15 in 7.0 mi Calm Calm - N/A   Clear
11:55 PM 61.7 °F 61.7 °F 100% 30.15 in 7.0 mi Calm Calm - N/A   Clear